GS0511 Weather Reports


time (UTC)temp
C
wind
direction
speed
KPH
gust
KPH
rain 1hr
cm
rain 24hr
cm
rain mn
cm
humidity
%
barometer
mb
20260905002958 20 211 0.0 0.0 0.00 1.35 0.00 87 1015.3
20260905001458 20 211 0.0 0.0 0.00 1.35 0.00 85 1015.3
20260904234458 21 211 0.0 0.0 0.00 1.35 0.00 85 1015.2
20260904232958 21 211 0.0 0.0 0.00 1.35 0.00 86 1015.0
20260904230001 22 149 0.0 1.6 0.00 1.35 0.00 83 1014.6
20260904222957 22 260 0.0 0.0 0.00 1.35 0.00 77 1014.4
20260904220001 23 260 0.0 1.6 0.00 1.35 0.00 76 1014.2
20260904212957 23 260 1.6 3.2 0.00 1.35 0.00 75 1014.3
20260904211457 23 257 3.2 8.0 0.00 1.35 0.00 73 1014.6
20260904210000 24 333 1.6 3.2 0.00 1.35 0.00 73 1014.5
20260904204457 25 329 3.2 6.4 0.00 1.40 0.00 71 1014.7
20260904202957 24 34 1.6 3.2 0.00 1.40 0.00 75 1014.7
20260904201457 24 34 1.6 6.4 0.00 1.40 0.00 73 1014.6
20260904200000 24 302 3.2 6.4 0.00 1.40 0.00 75 1014.8
20260904194457 25 297 3.2 9.7 0.00 1.40 0.00 75 1015.0
20260904192957 25 245 3.2 14.5 0.00 1.40 0.00 72 1015.3
20260904191457 25 331 3.2 8.0 0.00 1.40 0.00 74 1015.3
20260904185959 24 286 3.2 9.7 0.00 1.40 0.00 76 1015.3
20260904184457 25 253 3.2 9.7 0.00 1.40 0.00 73 1015.5
20260904182957 25 303 3.2 8.0 0.00 1.40 0.00 72 1015.5
20260904181457 25 259 3.2 8.0 0.00 1.40 0.00 71 1015.7
20260904180000 24 278 3.2 9.7 0.00 1.40 0.00 73 1015.8
20260904174457 24 314 1.6 11.3 0.00 1.40 0.00 72 1015.9
20260904172957 24 288 1.6 6.4 0.00 1.40 0.00 74 1016.1
20260904171457 24 230 3.2 6.4 0.00 1.40 0.00 72 1016.1
20260904164456 24 293 1.6 4.8 0.00 1.40 0.00 75 1016.3
20260904162956 23 248 3.2 8.0 0.00 1.40 0.00 74 1016.4
20260904160000 24 348 1.6 6.4 0.00 1.40 0.00 75 1016.4
20260904154457 24 148 3.2 6.4 0.00 1.40 0.00 74 1016.3
20260904151457 23 101 1.6 6.4 0.00 1.40 0.00 77 1016.5
20260904150000 22 36 3.2 4.8 0.00 1.40 0.00 80 1016.0
20260904144456 22 169 1.6 6.4 0.00 1.40 0.00 78 1016.2
20260904141456 21 261 1.6 4.8 0.00 1.40 0.00 87 1016.5
20260904135959 21 305 1.6 8.0 0.00 1.40 0.00 88 1016.5
20260904134457 21 251 1.6 4.8 0.00 1.40 0.00 89 1016.6
20260904132957 20 321 1.6 8.0 0.00 1.40 0.00 89 1016.5
20260904131457 20 273 1.6 9.7 0.00 1.40 0.00 91 1016.7
20260904130000 19 304 3.2 6.4 0.00 1.40 0.00 93 1016.6
20260904124458 18 246 3.2 6.4 0.00 1.42 0.00 95 1016.6
20260904122957 18 279 1.6 6.4 0.00 1.42 0.00 97 1016.5
20260904120001 17 257 0.0 1.6 0.00 1.42 0.00 98 1016.4
20260904114457 16 257 0.0 0.0 0.00 1.42 0.00 98 1016.3
20260904112957 16 257 0.0 0.0 0.00 1.42 0.00 97 1016.3
20260904111456 16 257 0.0 0.0 0.00 1.42 0.00 97 1016.2
20260904105959 16 257 0.0 0.0 0.00 1.42 0.00 97 1016.1
20260904104457 16 257 0.0 0.0 0.00 1.42 0.00 97 1016.0
20260904095958 17 257 0.0 1.6 0.00 1.42 0.00 96 1015.7
20260904094455 17 307 0.0 3.2 0.00 1.42 0.00 96 1015.6
20260904091455 17 307 0.0 0.0 0.00 1.42 0.00 96 1015.6
20260904085959 17 307 0.0 1.6 0.00 1.42 0.00 96 1015.6
20260904084455 17 307 0.0 1.6 0.00 1.42 0.00 96 1015.4
20260904082956 17 307 0.0 1.6 0.00 1.42 0.00 96 1015.4
20260904081456 17 307 0.0 0.0 0.00 1.42 0.00 95 1015.2
20260904075959 17 307 0.0 3.2 0.00 1.42 0.00 96 1015.0
20260904074458 17 274 0.0 3.2 0.00 1.42 0.00 96 1015.0
20260904072955 17 282 0.0 1.6 0.00 1.42 0.00 96 1015.0
20260904071455 18 282 0.0 1.6 0.00 1.42 0.00 96 1014.9
20260904070000 18 282 0.0 4.8 0.00 1.42 0.00 96 1014.8
20260904062955 18 309 0.0 4.8 0.00 1.42 0.00 98 1014.8
20260904061455 18 309 0.0 1.6 0.00 1.42 0.00 97 1014.8
20260904060000 19 309 0.0 1.6 0.00 1.42 0.00 98 1014.9
20260904054455 19 309 1.6 1.6 0.00 1.42 0.00 97 1015.1
20260904052955 19 309 1.6 3.2 0.00 1.42 0.00 97 1015.2
20260904051455 20 309 0.0 1.6 0.00 1.42 0.00 98 1015.3
20260904044455 20 309 1.6 3.2 0.00 1.42 0.00 98 1015.4
20260904041454 21 35 0.0 1.6 0.00 1.42 0.00 98 1015.3
20260904040006 21 35 0.0 0.0 0.00 1.42 0.00 98 1015.2
20260904034459 21 35 0.0 0.0 0.00 1.42 1.42 98 1015.1
20260904032959 21 35 0.0 1.6 0.00 1.42 1.42 98 1015.0
20260904031458 21 35 0.0 0.0 0.00 1.42 1.42 98 1014.9
20260904030001 21 35 0.0 0.0 0.00 1.42 1.42 98 1014.7
20260904023000 21 35 0.0 0.0 0.00 1.42 1.42 97 1014.7
20260904021458 21 35 0.0 0.0 0.00 1.42 1.42 97 1014.8
20260904020001 22 35 0.0 0.0 0.69 1.42 1.42 97 1014.8
20260904012959 22 35 0.0 3.2 1.35 1.42 1.42 97 1014.5
20260904010645 22 252 3.2 4.8 0.94 1.02 1.02 96 1014.7